Flag for Norway Weather past 2 weeks in Bodø, Norway

Now
50 °F

Sunny.


Feels Like: 48 °F
Forecast: 38 / 50 °F
Wind: 6 mph from Northwest

Location: Bodo Vi


UV Index: 0 (Low)

Visibility: 10 mi


Pressure: 30.36 "Hg

Humidity: 32%

Dew point: 21 °F

Location of BodøLocation

Historic Weather in Bodø

°F

Bodø temperature yesterday

Maximum temperature yesterday: 45 °F (at 5:20 PM)
Minimum temperature yesterday: 36 °F (at 12:50 AM)
Average temperature yesterday: 40 °F

Past Weeks' High & Low Weather Summary

 TemperatureHumidityPressure
High52 °F (Apr 24, 2:20 PM)100% (Apr 12, 1:50 AM)30.63 "Hg (Apr 12, 1:50 AM)
Low32 °F (Apr 16, 2:50 AM)28% (Apr 24, 2:20 PM)28.97 "Hg (Apr 13, 7:20 AM)
Average41 °F71%29.82 "Hg
* Reported Apr 9 3:20 PM — Apr 24 3:20 PM, Bodø, Weather by CustomWeather, © 2014

Note: Actual official high and low records may vary slightly from our data, if they occured in-between our weather recording intervals... More about our weather records

Advertising

Historic Weather Conditions — Data for Previous 24 hours

 ConditionsComfort  
Time TempWeatherWind HumidityBarometerVisibility
3:20 PM
Apr 24
50 °FPassing clouds.6 mph35%30.39 "HgN/A
2:50 PM50 °FPassing clouds.5 mph35%30.39 "HgN/A
2:20 PM52 °FPassing clouds.3 mph28%30.36 "HgN/A
1:50 PM50 °FPassing clouds.6 mph35%30.39 "HgN/A
1:20 PM50 °FPassing clouds.6 mph40%30.39 "HgN/A
12:50 PM48 °FSunny.5 mph34%30.39 "Hg10 mi
12:20 PM48 °FSunny.8 mph34%30.39 "Hg10 mi
11:50 AM46 °FSunny.10 mph40%30.39 "Hg10 mi
11:20 AM45 °FSunny.13 mph42%30.39 "Hg10 mi
10:50 AM43 °FSunny.15 mph57%30.39 "Hg10 mi
10:20 AM43 °FSunny.15 mph53%30.39 "Hg10 mi
9:50 AM43 °FPassing clouds.14 mph49%30.39 "HgN/A
9:20 AM41 °FSunny.14 mph49%30.39 "Hg10 mi
8:50 AM41 °FSunny.15 mph53%30.39 "Hg10 mi
8:20 AM39 °FSunny.14 mph52%30.42 "Hg10 mi
7:50 AM39 °FSunny.14 mph52%30.42 "Hg10 mi
7:20 AM39 °FSunny.14 mph48%30.42 "Hg10 mi
6:50 AM39 °FSunny.14 mph45%30.42 "Hg10 mi
6:20 AM37 °FSunny.14 mph52%30.42 "Hg10 mi
5:50 AM37 °FSunny.12 mph48%30.42 "Hg10 mi
5:20 AM37 °FClear.14 mph52%30.42 "Hg10 mi
4:50 AM37 °FClear.14 mph52%30.42 "Hg10 mi
3:50 AM37 °FClear.14 mph52%30.45 "Hg10 mi
2:50 AM39 °FClear.14 mph48%30.45 "Hg10 mi
1:50 AM39 °FClear.17 mph45%30.42 "Hg10 mi
12:50 AM39 °FClear.20 mph45%30.45 "Hg10 mi
12:20 AM39 °FClear.20 mph45%30.45 "Hg10 mi
11:50 PM
Apr 23
39 °FClear.18 mph45%30.45 "Hg10 mi
11:20 PM39 °FClear.17 mph45%30.45 "Hg10 mi
10:50 PM39 °FClear.20 mph48%30.45 "Hg10 mi
10:20 PM41 °FClear.21 mph45%30.45 "Hg10 mi
9:50 PM41 °FSunny.20 mph45%30.45 "Hg10 mi
9:20 PM41 °FSunny.20 mph45%30.48 "Hg10 mi
8:50 PM41 °FSunny.18 mph45%30.48 "Hg10 mi
8:20 PM43 °FSunny.17 mph42%30.48 "Hg10 mi
7:50 PM43 °FSunny.17 mph42%30.48 "Hg10 mi
7:20 PM43 °FSunny.16 mph46%30.48 "Hg10 mi
6:50 PM45 °FSunny.17 mph39%30.51 "Hg10 mi
6:20 PM45 °FSunny.18 mph39%30.51 "Hg10 mi
5:50 PM45 °FSunny.18 mph39%30.51 "Hg10 mi
5:20 PM45 °FSunny.18 mph39%30.51 "Hg10 mi
4:50 PM43 °FSunny.16 mph42%30.54 "Hg10 mi
4:20 PM43 °FSunny.18 mph42%30.54 "Hg10 mi
Weather by CustomWeather, © 2014

See weather overview